Location: Czernica
(51.0462°N, 17.2458°E)
Time: 22:35:43
(UTC+01:00)

ISS - Pass Details

Date: 31 January 2019
Orbit: 403 x 411 km, 51.6° (Epoch: 18 February)

Event Time Altitude Azimuth Distance (km) Brightness Sun altitude
Rises 18:10:39 0° 268° (W) 2,334 1.9 -14.3°
Reaches altitude 10° 18:12:44 10° 270° (W) 1,475 0.4 -14.7°
Maximum altitude 18:16:03 79° 358° (N) 424 -3.8 -15.2°
Enters shadow 18:17:15 36° 79° (E) 664 -3.3 -15.4°
